Weather Roundup
Issued by NWS

Home | Current Version | Previous Version | Text Only | Print | Product List | Glossary On
Versions: 1 2 3 4 5 6 7 8 9 10 11 12 13 14 15 16 17 18 19 20 21 22 23 24 25 26 27 28 29 30 31 32 33 34 35 36 37 38 39 40 41 42 43 44 45 46 47 48 49 50
000
NZUS93 KARX 210010
HRRWXR

CURRENT HOURLY OBSERVATIONS ACROSS
MUCH OF THE UPPER MISSISSIPPI VALLEY
NATIONAL WEATHER SERVICE LA CROSSE WI
700 PM CDT WED AUG 20 2014


...SOUTHEAST MINNESOTA...


CITY           SKY/WX    TMP DP  RH WIND       PRES   REMARKS
ROCHESTER      MOSUNNY   79  67  66 S8        29.89R
ROCHESTER/MAYO MOCLDY    80  64  57 SE9       29.88R
WINONA         PTSUNNY   79  70  73 E3        29.86F
AUSTIN         MOSUNNY   77  70  78 S7        29.88S
ALBERT LEA     PTSUNNY   77  66  69 S6        29.86F
DODGE CENTER   MOSUNNY   79  70  73 S7        29.88S
PRESTON        PTSUNNY   78  71  78 S5        29.89S
OWATONNA       MOSUNNY   81  66  61 S6        29.86S
FARIBAULT      PTSUNNY   84  64  51 SE7       29.85S
$$

...ELSEWHERE IN MINNESOTA...


CITY           SKY/WX    TMP DP  RH WIND       PRES   REMARKS
MINNEAPOLIS    PTSUNNY   80  66  62 E9        29.84S
INTNL FALLS    MOSUNNY   73  59  61 SE6       29.88S
DULUTH         PTSUNNY   67  58  72 E8        29.92F
RED WING       MOSUNNY   79  66  65 E7        29.84F
REDWOOD FALLS  PTSUNNY   80  68  66 SE10      29.79F
MANKATO        MOSUNNY   79  64  61 S9        29.83S
WORTHINGTON    CLOUDY    72  14  11 SE7       29.83S
FAIRMONT       PTSUNNY   75  66  73 SE8       29.84S
$$

...SOUTHWEST WISCONSIN...


CITY           SKY/WX    TMP DP  RH WIND       PRES   REMARKS
LA CROSSE      CLOUDY    82  67  60 E5        29.86S
PRAIRIE DU CHI MOCLDY    76  66  69 S7        29.87S
BOSCOBEL       CLOUDY    82  68  62 W3        29.87S
LONE ROCK      CLOUDY    86  68  54 CALM      29.87S
PLATTEVILLE    CLOUDY    76  69  79 SW12      29.92R
FORT MC COY    MOCLDY    79  64  59 CALM      29.89S
VIROQUA        FAIR      78  68  72 CALM      29.90S
WIS DELLS      MOCLDY    80  63  56 CALM      29.88S
$$

...ELSEWHERE IN WISCONSIN...


CITY           SKY/WX    TMP DP  RH WIND       PRES   REMARKS
MILWAUKEE      MOCLDY    70  65  84 E6        29.90R
MADISON        CLOUDY    79  68  69 CALM      29.87F
GREEN BAY      CLEAR     74  63  68 CALM      29.90F
EAU CLAIRE     PTSUNNY   75  64  68 NE3       29.88R
BLACK RVR FLS  FAIR      77  65  66 E3        29.88R
MEDFORD        PTCLDY    69  62  78 NE5       29.92F
WAUSAU         CLOUDY    73  60  63 CALM      29.90S
WIS RAPIDS     PTCLDY    75  62  64 NE7       29.91S
MARSHFIELD     PTCLDY    74  62  66 NE6       29.91S
RICE LAKE      PTSUNNY   72  61  68 NE5       29.90F
$$

...NORTHEAST IOWA...


CITY           SKY/WX    TMP DP  RH WIND       PRES   REMARKS
WATERLOO       CLOUDY    72  68  87 E6        29.88F
DUBUQUE        CLOUDY    73  69  87 SW10      29.92R
DECORAH        PTSUNNY   77  70  78 CALM      29.88S
MASON CITY     CLOUDY    73  68  84 SE8       29.87F
CHARLES CITY   CLOUDY    73  68  83 SE5       29.89F
OELWEIN        CLOUDY    72  70  94 CALM      29.91R
$$

...ELSEWHERE IN IOWA...


CITY           SKY/WX    TMP DP  RH WIND       PRES   REMARKS
DES MOINES     PTSUNNY   83  73  72 S12       29.82F
IOWA CITY      CLOUDY    76  71  85 S5        29.90S
FORT DODGE     CLOUDY    73  70  88 SE6       29.83F
MARSHALLTOWN   CLOUDY    75  71  87 E6        29.86S
CEDAR RAPIDS   CLOUDY    74  70  87 SE5       29.88F
$$

...NORTHERN ILLINOIS...


CITY           SKY/WX    TMP DP  RH WIND       PRES   REMARKS
CHICAGO-OHARE  MOCLDY    82  63  52 W10       29.88R
DUPAGE         CLEAR     81  65  58 W9        29.90R
CHICAGO-MIDWAY PTCLDY    84  68  58 W10       29.88S
MOLINE         MOCLDY    76  70  82 SW5       29.89S
ROCKFORD       MOCLDY    80  67  64 SW5       29.89F
STERLING       MOCLDY    75  66  73 W10       29.91R
PEORIA         PTCLDY    80  71  74 SW5       29.91F
$$

NOTE: "FAIR" INDICATES FEW OR NO CLOUDS BELOW 12,000 FEET WITH NO
SIGNIFICANT WEATHER AND/OR OBSTRUCTIONS TO VISIBILITY. WIND
SPEEDS ARE IN MILES-PER-HOUR.



USA.gov is the U.S. government's official web portal to all federal, state and local government web resources and services.